Regional Weather Roundup
Issued by NWS Newport/Morehead, NC

Home | Current Version | Previous Version | Text Only | Print | Product List | Glossary On
Versions: 1 2 3 4 5 6 7 8 9 10 11 12 13 14 15 16 17 18 19 20 21 22 23 24 25 26 27 28 29 30 31 32 33 34 35 36 37 38 39 40 41 42 43 44 45 46 47 48 49 50
000
ASUS42 KMHX 271726
RWRMHX
WEATHER ROUNDUP FOR EASTERN NORTH CAROLINA
NATIONAL WEATHER SERVICE NEWPORT/MOREHEAD CITY NC
100 PM EDT MON MAR 27 2017

NOTE: "FAIR" INDICATES FEW OR NO CLOUDS BELOW 12,000 FEET
WITH NO SIGNIFICANT WEATHER AND/OR OBSTRUCTIONS TO VISIBILITY

NCZ015>017-031-032-045>047-102-103-271800-
NORTH COAST

CITY           SKY/WX    TMP DP  RH WIND       PRES   REMARKS
EDENTON        PTSUNNY   75  55  51 SW9       30.14F
ELIZABETH CITY PTSUNNY   73  55  53 SW12      30.12F
KITTY HAWK     NOT AVBL
MANTEO         CLOUDY    66  52  60 S8        30.14F

$$

NCZ045>047-081-094-103-104-271800-
CENTRAL COAST

CITY           SKY/WX    TMP DP  RH WIND       PRES   REMARKS
FRISCO         MOSUNNY   74  55  51 SW9       30.15F

$$

NCZ095-097-098-100-101-271800-
SOUTHERN COAST

CITY           SKY/WX    TMP DP  RH WIND       PRES   REMARKS
BEAUFORT       SUNNY     75  56  51 SW10      30.15F
CEDAR ISLAND   NOT AVBL
JACKSONVILLE   NOT AVBL
PINEY ISLAND   CLOUDY   N/A N/A N/A E8        30.14F
WILMINGTON     CLOUDY    75  54  47 S9        30.14F


$$

NCZ011>013-027>030-043-044-078>080-089-090>093-098-271800-
COASTAL PLAIN

CITY           SKY/WX    TMP DP  RH WIND       PRES   REMARKS
AHOSKIE          N/A     70  58  65 CALM      30.12F
CLINTON        MOSUNNY   74  58  57 SW3       30.13F
ELIZABETHTOWN  MOSUNNY   75  56  50 S5        30.13F
GOLDSBORO      NOT AVBL
GREENVILLE     CLOUDY    73  55  53 S6        30.13F
HAVELOCK       MOSUNNY   76  52  43 SW9       30.15F
KENANSVILLE    CLOUDY    75  55  50 SW6       30.13F
KINSTON        CLOUDY    75  54  46 S10       30.13F
NEW BERN       CLOUDY    75  52  44 SW8       30.15F
RICHLANDS      CLOUDY    75  55  49 SW7       30.14F
ROCKY MOUNT    PTSUNNY   72  58  61 SW10      30.12F
WASHINGTON     PTSUNNY   74  55  50 SW8       30.13F
WHITEVILLE     PTSUNNY   77  55  46 SW6       30.12F

$$

AMZ130-135-150-152-154-156-158-170-250-252-270-ANZ085-086-088-633-658-670-271800-
MARINE OBSERVATIONS

STATION/POSITION TIME  TEMP    WIND        PRES    WAVE   SWELL
                       AIR SEA DIR/SP/G            HT/PER HT/PER
                 (UTC) (F)     (DEG/KT/KT) (MB)    (FT/S) (FT/S)
CHESAPEAKE LIGHT NOT AVBL
64 E VA BEACH    1650   55 50  200/  6/  8 1020.4    4/ 7   3/ 7
DUCK             1654   69 49  240/  4/  7 1019.9
2 E DUCK         1700      55                N/A     3/ 8
OREGON INLET     1648   65 56  180/  8/ 10 1020.8
13E OREGON INLT  1648      54                N/A     4/ 9   3/ 9
HATTERAS CG      1654   67 60  270/  3/  5 1021.0
DIAMOND BUOY     1650   71 76  190/  6/ 10 1021.2    3/10   3/10
CAPE LOOKOUT     1700   68     150/  8/  9 1021.0
BEAUFORT LAB     1700   69 58  190/  7/  8 1020.3
30 SE NEW RVR IN 1708   69      10/  2/  4 1021.5
30 SE NEW RVR IN 1713      68                N/A     4/10   2/11
27 SE WRIGHTSVLE 1708   69 64  250/  2/  6 1020.5
5 SE WRIGHTSVLE  1708   65 61  140/  4/  8 1020.9
225 S CAPE HAT   1650   69 72   80/ 14/ 16 1020.8    5/ 8   5/ 8
41 SE CHARLESTON 1650   71 73  280/  4/  6 1020.9    5/ 9   5/ 9

$$



USA.gov is the U.S. government's official web portal to all federal, state and local government web resources and services.